Big Rapids, MI

4:34 PM EDT on May 24, 2017 (GMT -0400)
Roben-Hood

Weather History for KRQB - February, 2012

Change the Weather History Date:

Sunday, February 5, 2012

  Actual Average Record
Temperature  
Mean Temperature 29 °F -  
Max Temperature 37 °F 27 °F 51 °F (2005)
Min Temperature 21 °F 9 °F -12 °F (2015)
Degree Days  
Heating Degree Days 36    
Moisture  
Dew Point 26 °F    
Average Humidity 89    
Maximum Humidity 100    
Minimum Humidity 68    
Precipitation  
Precipitation 0.00 in - - ()
Sea Level Pressure  
Sea Level Pressure 30.19 in    
Wind  
Wind Speed 2 mph (NW)    
Max Wind Speed 9 mph    
Max Gust Speed 16 mph    
Visibility 10 miles    
Events      
Averages and records for this station are not official NWS values.
T = Trace of Precipitation, MM = Missing Value Source: NWS Daily Summary

Daily Weather History Graph

Daily Weather History Graph

Search for Another Location

Airport or City:

Trip Planner

Search our weather history database for the weather conditions in past years. The results will help you decide how hot, cold, wet, or windy it might be!

Date:

Astronomy

Feb. 05, 2012 Rise Set
Actual Time 7:54 AM EST 5:57 PM EST
Civil Twilight 7:24 AM EST 6:28 PM EST
Nautical Twilight 6:50 AM EST 7:02 PM EST
Astronomical Twilight 6:16 AM EST 7:35 PM EST
Moon 3:53 PM EST (2/5) 6:07 AM EST (2/5)
Length of Visible Light 11h 03m
Length of Day
10h 03m
Waxing Gibbous, 94% of the Moon is Illuminated
Feb 5
Waxing Gibbous
Feb 7
Full
Feb 14
Last Quarter
Feb 21
New
Feb 29
First Quarter

Hourly Weather History & Observations

Time (EST) Temp. Windchill Dew Point Humidity Pressure Visibility Wind Dir Wind Speed Gust Speed Precip Events Conditions
12:14 AM 23.7 °F - 23.7 °F 100% 30.14 in 10.0 mi Calm Calm - N/A   Clear
12:34 AM 21.9 °F - 21.9 °F 100% 30.15 in 10.0 mi Calm Calm - N/A   Clear
12:54 AM 21.7 °F - 21.7 °F 100% 30.14 in 10.0 mi Calm Calm - N/A   Clear
1:14 AM 21.7 °F - 21.7 °F 100% 30.14 in 10.0 mi Calm Calm - N/A   Clear
1:34 AM 22.6 °F - 22.6 °F 100% 30.15 in 10.0 mi Calm Calm - N/A   Clear
1:54 AM 22.5 °F - 22.5 °F 100% 30.16 in 10.0 mi Calm Calm - N/A   Scattered Clouds
2:14 AM 23.7 °F - 23.7 °F 100% 30.16 in 10.0 mi Calm Calm - N/A   Mostly Cloudy
2:34 AM 23.9 °F - 23.9 °F 100% 30.16 in 10.0 mi Calm Calm - N/A   Mostly Cloudy
2:55 AM 23.0 °F - 23.0 °F 100% 30.16 in 10.0 mi Calm Calm - N/A   Scattered Clouds
3:14 AM 22.6 °F - 22.6 °F 100% 30.16 in 10.0 mi Calm Calm - N/A   Scattered Clouds
3:34 AM 22.1 °F - 22.1 °F 100% 30.16 in 10.0 mi Calm Calm - N/A   Scattered Clouds
3:54 AM 22.3 °F - 22.3 °F 100% 30.16 in 10.0 mi Calm Calm - N/A   Mostly Cloudy
4:14 AM 23.0 °F - 23.0 °F 100% 30.16 in 10.0 mi Calm Calm - N/A   Scattered Clouds
4:35 AM 21.7 °F - 21.7 °F 100% 30.16 in 10.0 mi Calm Calm - N/A   Clear
4:54 AM 22.6 °F - 22.6 °F 100% 30.16 in 10.0 mi Calm Calm - N/A   Scattered Clouds
5:14 AM 23.0 °F - 23.0 °F 100% 30.17 in 10.0 mi Calm Calm - N/A   Scattered Clouds
5:34 AM 23.0 °F - 23.0 °F 100% 30.17 in 10.0 mi Calm Calm - N/A   Mostly Cloudy
5:54 AM 24.3 °F - 24.3 °F 100% 30.17 in 10.0 mi Calm Calm - N/A   Overcast
6:14 AM 25.0 °F - 25.0 °F 100% 30.17 in 10.0 mi Calm Calm - N/A   Overcast
6:34 AM 25.3 °F - 25.3 °F 100% 30.18 in 10.0 mi Calm Calm - N/A   Overcast
6:54 AM 25.9 °F - 25.9 °F 100% 30.19 in 10.0 mi Calm Calm - N/A   Overcast
7:14 AM 26.6 °F - 26.6 °F 100% 30.20 in 10.0 mi Calm Calm - N/A   Overcast
7:34 AM 27.3 °F - 27.3 °F 100% 30.20 in 10.0 mi Calm Calm - N/A   Overcast
7:54 AM 28.4 °F - 28.4 °F 100% 30.21 in 10.0 mi Calm Calm - N/A   Overcast
8:14 AM 28.4 °F - 28.4 °F 100% 30.21 in 10.0 mi Calm Calm - N/A   Overcast
8:34 AM 28.9 °F - 28.9 °F 100% 30.21 in 10.0 mi Calm Calm - N/A   Overcast
8:54 AM 30.0 °F 24.1 °F 30.0 °F 100% 30.22 in 10.0 mi North 5.8 mph - N/A   Overcast
9:14 AM 31.8 °F 27.3 °F 28.8 °F 88% 30.23 in 10.0 mi North 4.6 mph - N/A   Overcast
9:34 AM 32.0 °F 25.6 °F 27.7 °F 84% 30.23 in 10.0 mi NNE 6.9 mph - N/A   Overcast
9:54 AM 32.0 °F 26.4 °F 28.2 °F 86% 30.24 in 10.0 mi North 5.8 mph - N/A   Overcast
10:15 AM 32.0 °F 26.4 °F 27.9 °F 85% 30.25 in 10.0 mi North 5.8 mph - N/A   Overcast
10:34 AM 32.2 °F 26.7 °F 27.9 °F 84% 30.25 in 10.0 mi North 5.8 mph - N/A   Overcast
10:54 AM 32.4 °F 26.9 °F 27.7 °F 83% 30.25 in 10.0 mi NE 5.8 mph - N/A   Overcast
11:14 AM 32.4 °F 26.9 °F 27.3 °F 82% 30.26 in 10.0 mi NNW 5.8 mph - N/A   Overcast
11:34 AM 32.9 °F 27.5 °F 27.9 °F 82% 30.26 in 10.0 mi NNW 5.8 mph - N/A   Overcast
11:54 AM 32.9 °F 26.7 °F 28.0 °F 82% 30.26 in 10.0 mi North 6.9 mph - N/A   Overcast
12:14 PM 33.1 °F 30.0 °F 27.5 °F 80% 30.25 in 10.0 mi NNW 3.5 mph - N/A   Overcast
12:34 PM 33.1 °F 28.7 °F 27.9 °F 81% 30.24 in 10.0 mi North 4.6 mph - N/A   Overcast
12:55 PM 33.3 °F 28.9 °F 27.9 °F 81% 30.24 in 10.0 mi NW 4.6 mph - N/A   Overcast
1:14 PM 33.8 °F 30.8 °F 28.2 °F 80% 30.23 in 10.0 mi North 3.5 mph - N/A   Overcast
1:34 PM 33.8 °F - 27.3 °F 77% 30.22 in 10.0 mi Calm Calm - N/A   Overcast
1:55 PM 34.5 °F 30.4 °F 27.9 °F 77% 30.21 in 10.0 mi NNW 4.6 mph - N/A   Overcast
2:14 PM 35.6 °F 31.7 °F 28.0 °F 74% 30.21 in 10.0 mi WNW 4.6 mph - N/A   Overcast
2:34 PM 34.7 °F 30.6 °F 27.5 °F 75% 30.21 in 10.0 mi NNW 4.6 mph - N/A   Mostly Cloudy
2:55 PM 35.2 °F 30.3 °F 27.7 °F 74% 30.20 in 10.0 mi NNW 5.8 mph - N/A   Scattered Clouds
3:14 PM 36.5 °F 31.0 °F 27.9 °F 71% 30.20 in 10.0 mi NW 6.9 mph - N/A   Scattered Clouds
3:34 PM 36.3 °F 32.5 °F 27.3 °F 70% 30.19 in 10.0 mi NW 4.6 mph - N/A   Scattered Clouds
3:55 PM 37.0 °F 30.4 °F 28.4 °F 71% 30.19 in 10.0 mi WNW 9.2 mph - N/A   Clear
4:14 PM 37.2 °F 31.9 °F 27.7 °F 68% 30.19 in 10.0 mi West 6.9 mph - N/A   Clear
4:34 PM 36.9 °F 31.4 °F 27.9 °F 70% 30.19 in 10.0 mi WNW 6.9 mph - N/A   Clear
4:55 PM 36.0 °F 30.3 °F 28.0 °F 73% 30.19 in 10.0 mi WNW 6.9 mph - N/A   Clear
5:14 PM 35.2 °F 28.8 °F 28.2 °F 76% 30.19 in 10.0 mi WNW 8.1 mph - N/A   Clear
5:34 PM 34.3 °F 28.4 °F 27.9 °F 77% 30.19 in 10.0 mi West 6.9 mph - N/A   Clear
5:54 PM 32.9 °F 26.7 °F 27.5 °F 81% 30.19 in 10.0 mi WNW 6.9 mph - N/A   Clear
6:15 PM 32.4 °F 24.6 °F 27.3 °F 82% 30.19 in 10.0 mi West 9.2 mph - N/A   Clear
6:34 PM 31.6 °F 27.0 °F 27.3 °F 84% 30.19 in 10.0 mi West 4.6 mph - N/A   Clear
6:54 PM 31.3 °F 27.9 °F 26.8 °F 83% 30.19 in 10.0 mi West 3.5 mph - N/A   Clear
7:15 PM 31.6 °F 28.3 °F 27.3 °F 84% 30.19 in 10.0 mi WSW 3.5 mph - N/A   Mostly Cloudy
7:34 PM 31.5 °F 26.8 °F 27.5 °F 85% 30.18 in 10.0 mi WSW 4.6 mph - N/A   Overcast
7:54 PM 31.6 °F 26.0 °F 28.0 °F 87% 30.18 in 10.0 mi West 5.8 mph - N/A   Overcast
8:14 PM 31.5 °F 24.2 °F 28.0 °F 87% 30.18 in 10.0 mi West 8.1 mph 16.1 mph N/A   Overcast
8:34 PM 30.9 °F 25.2 °F 27.7 °F 88% 30.18 in 10.0 mi West 5.8 mph - N/A   Overcast
8:55 PM 30.4 °F 25.6 °F 27.5 °F 89% 30.18 in 10.0 mi West 4.6 mph - N/A   Scattered Clouds
9:14 PM 29.8 °F 24.9 °F 27.3 °F 90% 30.17 in 10.0 mi West 4.6 mph - N/A   Scattered Clouds
9:34 PM 29.3 °F 25.6 °F 27.1 °F 92% 30.17 in 10.0 mi West 3.5 mph - N/A   Clear
9:55 PM 29.5 °F 24.5 °F 27.1 °F 91% 30.17 in 10.0 mi West 4.6 mph - N/A   Clear
10:14 PM 29.1 °F 25.4 °F 27.1 °F 92% 30.16 in 10.0 mi West 3.5 mph - N/A   Clear
10:34 PM 29.1 °F 25.4 °F 27.9 °F 95% 30.16 in 10.0 mi West 3.5 mph - N/A   Mostly Cloudy
10:55 PM 30.6 °F 25.8 °F 28.6 °F 92% 30.15 in 10.0 mi West 4.6 mph - N/A   Overcast
11:14 PM 31.1 °F 24.5 °F 29.1 °F 92% 30.14 in 10.0 mi West 6.9 mph - N/A   Overcast
11:34 PM 31.5 °F 25.8 °F 29.3 °F 92% 30.14 in 10.0 mi West 5.8 mph - N/A   Mostly Cloudy
11:55 PM 31.1 °F 26.4 °F 29.3 °F 93% 30.13 in 10.0 mi West 4.6 mph - N/A   Scattered Clouds